{"data":{"norad_id":53919,"epoch":"2026-09-20T22:32:14.133408Z","epoch_age_seconds":49068,"freshness":"FRESH","line1":"1 53919U 22119AK  26263.93905247 -.00000539  00000+0 -56048-5 0  9996","line2":"2 53919  53.1612 143.1347 0001278  86.3421 273.7727 15.31696916221504","mean_motion":15.31696916,"eccentricity":0.0001278,"inclination_deg":53.1612,"raan_deg":143.1347,"arg_perigee_deg":86.3421,"mean_anomaly_deg":273.7727,"bstar":-5.6048e-6,"rev_number":22150,"period_min":94.01337725224,"perigee_km":469.87390082971,"apogee_km":471.62447613948,"semimajor_km":6848.8861884846,"source":"CELESTRAK","updated_at":"2026-09-21T09:00:33.034945Z"}}